Location: Casa Rossa
(45.2389°N, 12.2056°E)
Time: 22:54:01
(UTC+00:00)

AQUA - Pass Details

Date: 14 July 2020
Orbit: 701 x 704 km, 98.2° (Epoch: 14 August)

Event Time Altitude Azimuth Distance (km) Brightness Sun altitude
Rises 01:26:43 0° 11° (N) 3,104 8.5 -16.9°
Reaches altitude 10° 01:29:00 10° 8° (N) 2,181 7.4 -16.7°
Maximum altitude 01:33:44 68° 287° (WNW) 760 3.9 -16.3°
Enters shadow 01:36:15 27° 211° (SSW) 1,321 4.6 -16.0°
